Tracking 35334 objects as of 13-Sep-2026
HD Live streaming from Space Station
objects crossing your sky now

FLOCK 4A 13


FLOCK 4A 13 is no longer on orbit
FLOCK 4A 13 is classified as:


NORAD ID: 44102
Int'l Code: 2019-018AA
Launch date: April 1, 2019
Source: United States (US)
Launch site: SRIHARIKOTA (SRI)
Decay date: 2023-06-16
Your satellite tracking list
Your tracking list is empty




NASA's NSSDC Master Catalog

Two Line Element Set (TLE):
1 44102U 19018AA  23166.61916984  .14540181  24720-5  29860-3 0  9994
2 44102  97.2259 235.2792 0015150 250.6176 109.3490 16.45760216234885
Source of the keplerian elements: AFSPC